Location: Bannatyne
(13.0833°N, 59.5333°W)
Time: 13:20:11
(UTC+00:00)

Vanguard 2 Rocket - Pass Details

Date: 23 January 2020
Orbit: 554 x 3326 km, 32.9° (Epoch: 04 April)

Event Time Altitude Azimuth Distance (km) Brightness Sun altitude
Rises 13:44:39 0° 311° (NW) 4,161 9.8 41.6°
Reaches altitude 10° 13:47:11 10° 318° (NW) 3,486 9.5 42.1°
Maximum altitude 13:56:12 46° 30° (NNE) 2,576 9.6 43.7°
Drops below altitude 10° 14:11:22 10° 98° (E) 5,732 11.6 46.3°
Sets 14:16:53 0° 104° (ESE) 7,040 11.9 47.2°
